Flag for Canada Weather past 2 weeks in Yellowknife, Northwest Territories, Canada

Now
43 °F

Mostly cloudy.


Feels Like: 43 °F
Forecast: 44 / 54 °F
Wind: 2 mph from Northeast

Location: Yellowknife

Current Time: Sep 20, 2014 at 4:51:46 AM

Latest Report: Sep 20, 2014 at 4:00 AM


Visibility: 15 mi

Pressure: 29.67 "Hg

Humidity: 100%

Dew point: 43 °F

Location of YellowknifeLocation

Historic Weather in Yellowknife — Graph

°F

Yellowknife temperature yesterday

Maximum temperature yesterday: 50 °F (at 2:00 PM)
Minimum temperature yesterday: 39 °F (at 2:00 AM)
Average temperature yesterday: 44 °F

Past Weeks' High & Low Weather Summary

 TemperatureHumidityPressure
High57 °F (Sep 14, 2:00 PM)100% (Sep 9, 6:00 AM)30.50 "Hg (Sep 9, 6:00 AM)
Low28 °F (Sep 6, 6:00 AM)34% (Sep 16, 6:00 PM)29.48 "Hg (Sep 19, 3:00 PM)
Average41 °F70%30.03 "Hg
* Reported Sep 5 3:00 AM — Sep 20 3:00 AM, Yellowknife, Weather by CustomWeather, © 2014

Note: Actual official high and low records may vary slightly from our data, if they occured in-between our weather recording intervals... More about our weather records

Advertising

Yellowknife weather history for previous 24 hours

 ConditionsComfort  
Time TempWeatherWind HumidityBarometerVisibility
3:00 AM
Sep 20
43 °FDrizzle. Mostly cloudy.5 mph100%29.66 "Hg15 mi
2:00 AM45 °FLight rain. Mostly cloudy.6 mph93%29.64 "Hg15 mi
1:00 AM45 °FLight rain. Mostly cloudy.5 mph93%29.61 "Hg15 mi
12:00 AM45 °FLight rain. Mostly cloudy.6 mph93%29.59 "Hg15 mi
11:00 PM
Sep 19
45 °FLight rain. Mostly cloudy.7 mph93%29.57 "Hg15 mi
10:00 PM45 °FLight rain. Overcast.7 mph93%29.55 "Hg10 mi
9:00 PM45 °FLight rain. Overcast.8 mph93%29.53 "Hg10 mi
8:00 PM45 °FLight rain. Overcast.8 mph93%29.52 "Hg10 mi
7:00 PM46 °FLight rain. Overcast.8 mph87%29.51 "Hg15 mi
6:00 PM46 °FLight rain. Overcast.6 mph87%29.50 "Hg15 mi
5:00 PM46 °FLight rain. Overcast.15 mph87%29.48 "Hg15 mi
4:00 PM48 °FLight rain. Overcast.10 mph82%29.48 "Hg15 mi
3:00 PM48 °FSprinkles. Overcast.8 mph82%29.48 "Hg15 mi
2:00 PM50 °FPartly sunny.14 mph67%29.49 "Hg15 mi
1:00 PM48 °FBroken clouds.12 mph71%29.49 "Hg15 mi
12:00 PM48 °FBroken clouds.16 mph71%29.49 "Hg15 mi
11:00 AM46 °FPartly sunny.17 mph76%29.49 "Hg15 mi
10:00 AM45 °FPartly sunny.15 mph81%29.51 "Hg15 mi
9:00 AM43 °FPartly sunny.14 mph87%29.52 "Hg15 mi
8:00 AM41 °FPassing clouds.14 mph87%29.52 "Hg15 mi
7:00 AM41 °FPartly cloudy.15 mph87%29.53 "Hg15 mi
6:00 AM41 °FPassing clouds.10 mph87%29.54 "Hg15 mi
5:00 AM39 °FPassing clouds.8 mph93%29.54 "Hg15 mi
4:00 AM39 °FPassing clouds.8 mph93%29.55 "Hg15 mi
Weather by CustomWeather, © 2014

See weather overviewHow to use our weather pages